Regional Weather Roundup
Issued by NWS Cleveland, OH

Home | Current Version | Previous Version | Graphics & Text | Print | Product List | Glossary On
Versions: 1 2 3 4 5 6 7 8 9 10 11 12 13 14 15 16 17 18 19 20 21 22 23 24 25 26 27 28 29 30 31 32 33 34 35 36 37 38 39 40 41 42 43 44 45 46 47 48 49 50
000
ASUS41 KCLE 050600
RWRCLE
OHIO REGIONAL WEATHER ROUNDUP
NATIONAL WEATHER SERVICE WILMINGTON, OH
200 AM EDT SAT SEP 05 2015

NOTE: "FAIR" INDICATES FEW OR NO CLOUDS BELOW 12,000 FEET WITH NO
SIGNIFICANT WEATHER AND/OR OBSTRUCTIONS TO VISIBILITY.

OHZ001>008-015>018-024>027-034-035-043-044-050700-
   NORTHWEST OHIO

CITY           SKY/WX    TMP DP  RH WIND       PRES   REMARKS
DEFIANCE       PTCLDY    70  65  84 CALM      30.09S
FINDLAY        PTCLDY    68  65  90 W3        30.08S
TOLEDO EXPRESS CLEAR     68  66  93 SW3       30.08S
TOLEDO EXEC    PTCLDY    68  64  87 S3        30.08F
LIMA           PTCLDY    65  63  93 W5        30.10S
$$

OHZ009>014-019>023-028>033-038-089-050700-
   NORTHEAST OHIO

CITY           SKY/WX    TMP DP  RH WIND       PRES   REMARKS
CLE-HOPKINS    CLEAR     69  66  90 SE7       30.12S
CLE-LAKEFRONT  PTCLDY    74  67  78 SE3       30.09R
CUY CO. ARPT   NOT AVBL
LORAIN-ELYRIA  CLEAR     65  63  93 S6        30.10F
ASHTABULA      CLEAR     67  65  93 SE8       30.12S
AKRON-CANTON   PTCLDY    70  63  78 S3        30.13R
WOOSTER        PTCLDY    64  63  94 CALM      30.13R FOG
MANSFIELD      CLEAR     65  62  90 S3        30.11F
YOUNGSTOWN     PTCLDY    67  64  90 SE6       30.13S
$$

OHZ042-051>053-060>062-070>072-077>081-050700-
  SOUTHWEST OHIO

CITY           SKY/WX    TMP DP  RH WIND       PRES   REMARKS
CINC-COVINGTON MOCLDY    67  64  90 CALM      30.09S
CINC-LUNKEN    MOCLDY    66  66 100 CALM      30.08F
HAMILTON       MOCLDY    67  66  97 CALM      30.09F
DAYTON         NOT AVBL
WRIGHT-PAT AFB PTCLDY    66  66 100 NE2       30.09F
DAYTON GENERAL MOCLDY    65  62  90 NE6       30.09F
WILMINGTON     MOCLDY    67  63  87 N5        30.10S
$$

OHZ036-037-039>041-045>050-054>059-063>069-073>076-082>088-050700-
  CENTRAL AND SOUTHEAST OHIO

CITY           SKY/WX    TMP DP  RH WIND       PRES   REMARKS
COLUMBUS       PTCLDY    65  64  97 W5        30.11R
OSU AIRPORT    PTCLDY    64  63  96 E3        30.11R
BOLTON FIELD   NOT AVBL
RICKENBACK AFB NOT AVBL
NEWARK         PTCLDY    62  61  96 CALM      30.11R FOG
MARION         PTCLDY    64  62  93 SE3       30.10S
LANCASTER      PTCLDY    65  63  93 N5        30.11R FOG
ZANESVILLE     PTCLDY    64  62  93 CALM      30.11S
NEW PHILLY     CLEAR     66  65  96 CALM      30.12S FOG
$$


USA.gov is the U.S. government's official web portal to all federal, state and local government web resources and services.